This is the latest recevied weather packets stored in our database for station/object DH5WR-10. If no packets are shown the sender has not sent any weather packets the latest 10 day(s).
| Time | Temp. | Humidity | Pressure | Rain* | Wind** | Luminosity | Snow |
|---|---|---|---|---|---|---|---|
| 1777553538 | 14.44° C | 23% | 1025.5 hPa | - | - | - | - |
| 1777552638 | 13.89° C | 23% | 1025.4 hPa | - | - | - | - |
| 1777551737 | 13.89° C | 23% | 1025.5 hPa | - | - | - | - |
| 1777550837 | 13.89° C | 24% | 1025.7 hPa | - | - | - | - |
| 1777549937 | 13.33° C | 26% | 1025.7 hPa | - | - | - | - |
| 1777549037 | 12.22° C | 27% | 1025.9 hPa | - | - | - | - |
| 1777548137 | 12.78° C | 27% | 1025.9 hPa | - | - | - | - |
| 1777547237 | 12.22° C | 29% | 1026.1 hPa | - | - | - | - |
| 1777546337 | 12.22° C | 30% | 1026.1 hPa | - | - | - | - |
| 1777545436 | 11.67° C | 31% | 1026.2 hPa | - | - | - | - |
| 1777544536 | 11.11° C | 31% | 1026.4 hPa | - | - | - | - |
| 1777543636 | 11.11° C | 33% | 1026.5 hPa | - | - | - | - |
| 1777542736 | 10.56° C | 33% | 1026.5 hPa | - | - | - | - |
| 1777541836 | 10.56° C | 33% | 1026.5 hPa | - | - | - | - |
| 1777540936 | 10° C | 33% | 1026.6 hPa | - | - | - | - |
| 1777540036 | 10° C | 33% | 1026.5 hPa | - | - | - | - |
| 1777539136 | 10° C | 33% | 1026.6 hPa | - | - | - | - |
| 1777538235 | 9.44° C | 34% | 1026.6 hPa | - | - | - | - |
| 1777537335 | 8.89° C | 35% | 1026.6 hPa | - | - | - | - |
| 1777536435 | 9.44° C | 35% | 1026.4 hPa | - | - | - | - |
| 1777535535 | 8.33° C | 36% | 1026.4 hPa | - | - | - | - |
| 1777534636 | 7.78° C | 37% | 1026.4 hPa | - | - | - | - |
| 1777533734 | 7.78° C | 37% | 1026.3 hPa | - | - | - | - |
| 1777532834 | 7.22° C | 38% | 1026.5 hPa | - | - | - | - |
| 1777531934 | 7.22° C | 37% | 1026.5 hPa | - | - | - | - |
* Rain since midnight (hover to see other rain measurements)
** Current wind speed in m/s (hover to see current wind gust speed)